Weather History for KW29 - April, 2014

Change the Weather History Date:

Monday, April 28, 2014

  Actual Average (KESN) Record (KESN)
Temperature  
Mean Temperature 54 °F -  
Max Temperature 59 °F 66 °F 89 °F (1957)
Min Temperature 48 °F 45 °F 34 °F (1972)
Degree Days  
Heating Degree Days 12    
Growing Degree Days 4 (Base 50)    
Moisture  
Dew Point 40 °F    
Average Humidity 65    
Maximum Humidity 100    
Minimum Humidity 42    
Precipitation  
Precipitation 0.00 in - - ()
Sea Level Pressure  
Sea Level Pressure 30.09 in    
Wind  
Wind Speed 4 mph (ESE)    
Max Wind Speed 10 mph    
Max Gust Speed -    
Visibility 9 miles    
Events Rain    
Averages and records for this station are not official NWS values.
T = Trace of Precipitation, MM = Missing Value Source: NWS Daily Summary

Daily Weather History Graph

Daily Weather History Graph

Search for Another Location

Airport or City:

Trip Planner

Search our weather history database for the weather conditions in past years. The results will help you decide how hot, cold, wet, or windy it might be!

Date:

Astronomy

Apr. 28, 2014 Rise Set
Actual Time 6:11 AM EDT 7:55 PM EDT
Civil Twilight 5:42 AM EDT 8:23 PM EDT
Nautical Twilight 5:08 AM EDT 8:58 PM EDT
Astronomical Twilight 4:31 AM EDT 9:35 PM EDT
Moon 5:47 AM EDT (4/28) 7:31 PM EDT (4/28)
Length of Visible Light 14h 41m
Length of Day
13h 44m
Waning Crescent, 0% of the Moon is Illuminated
Apr 28
Waning Crescent
Apr 29
New
May 6
First Quarter
May 14
Full
May 21
Last Quarter

Hourly Weather History & Observations

Time (EDT) Temp. Dew Point Humidity Pressure Visibility Wind Dir Wind Speed Gust Speed Precip Events Conditions
12:26 AM 51.8 °F 37.4 °F 58% 30.11 in 10.0 mi Calm Calm - N/A   Clear
12:46 AM 51.8 °F 37.4 °F 58% 30.12 in 10.0 mi ENE 3.5 mph - N/A   Clear
1:06 AM 51.8 °F 35.6 °F 54% 30.12 in 10.0 mi Calm Calm - N/A   Clear
1:26 AM 51.8 °F 35.6 °F 54% 30.11 in 10.0 mi Calm Calm - N/A   Clear
1:46 AM 51.8 °F 35.6 °F 54% 30.10 in 10.0 mi ENE 4.6 mph - N/A   Clear
2:06 AM 51.8 °F 35.6 °F 54% 30.09 in 10.0 mi NE 4.6 mph - N/A   Clear
2:26 AM 51.8 °F 37.4 °F 58% 30.09 in 10.0 mi ENE 4.6 mph - N/A   Clear
2:46 AM 51.8 °F 37.4 °F 58% 30.10 in 10.0 mi ENE 6.9 mph - N/A   Clear
3:06 AM 50.0 °F 35.6 °F 58% 30.10 in 10.0 mi ENE 8.1 mph - N/A   Clear
3:26 AM 50.0 °F 35.6 °F 58% 30.10 in 10.0 mi ENE 5.8 mph - N/A   Clear
5:06 AM 50.0 °F 33.8 °F 54% 30.10 in 10.0 mi NE 4.6 mph - N/A   Clear
6:06 AM 50.0 °F 33.8 °F 54% 30.11 in 10.0 mi NE 5.8 mph - N/A   Clear
6:26 AM 50.0 °F 33.8 °F 54% 30.12 in 10.0 mi ENE 5.8 mph - N/A   Clear
6:46 AM 50.0 °F 35.6 °F 58% 30.12 in 10.0 mi ENE 5.8 mph - N/A   Clear
7:06 AM 50.0 °F 33.8 °F 54% 30.12 in 10.0 mi ENE 9.2 mph - N/A   Clear
7:26 AM 50.0 °F 33.8 °F 54% 30.13 in 10.0 mi ENE 6.9 mph - N/A   Clear
7:46 AM 50.0 °F 35.6 °F 58% 30.14 in 10.0 mi ENE 8.1 mph - N/A   Clear
8:06 AM 51.8 °F 33.8 °F 50% 30.14 in 10.0 mi NE 9.2 mph - N/A   Clear
8:26 AM 51.8 °F 35.6 °F 54% 30.14 in 10.0 mi ENE 9.2 mph - N/A   Clear
8:46 AM 51.8 °F 35.6 °F 54% 30.13 in 10.0 mi East 9.2 mph - N/A   Clear
9:07 AM 51.8 °F 35.6 °F 54% 30.12 in 10.0 mi East 9.2 mph - N/A   Clear
9:27 AM 53.6 °F 35.6 °F 51% 30.12 in 10.0 mi ENE 8.1 mph - N/A   Clear
9:47 AM 53.6 °F 35.6 °F 51% 30.14 in 10.0 mi Calm Calm - N/A   Mostly Cloudy
10:07 AM 53.6 °F 35.6 °F 51% 30.14 in 10.0 mi ENE 3.5 mph - N/A   Overcast
10:27 AM 55.4 °F 35.6 °F 47% 30.13 in 10.0 mi East 4.6 mph - N/A   Scattered Clouds
10:47 AM 55.4 °F 35.6 °F 47% 30.11 in 10.0 mi Calm Calm - N/A   Clear
11:07 AM 57.2 °F 35.6 °F 44% 30.11 in 10.0 mi ESE 4.6 mph - N/A   Clear
11:27 AM 59.0 °F 37.4 °F 45% 30.10 in 10.0 mi East 3.5 mph - N/A   Clear
11:47 AM 59.0 °F 37.4 °F 45% 30.10 in 10.0 mi WSW 3.5 mph - N/A   Scattered Clouds
12:07 PM 57.2 °F 39.2 °F 51% 30.09 in 10.0 mi WSW 4.6 mph - N/A   Scattered Clouds
12:27 PM 55.4 °F 39.2 °F 54% 30.09 in 10.0 mi NW 3.5 mph - N/A   Scattered Clouds
12:47 PM 55.4 °F 41.0 °F 58% 30.09 in 10.0 mi WNW 5.8 mph - N/A   Scattered Clouds
1:07 PM 55.4 °F 39.2 °F 54% 30.08 in 10.0 mi West 4.6 mph - N/A   Scattered Clouds
1:27 PM 55.4 °F 39.2 °F 54% 30.07 in 10.0 mi West 3.5 mph - N/A   Scattered Clouds
1:47 PM 55.4 °F 41.0 °F 58% 30.07 in 10.0 mi WNW 4.6 mph - N/A   Scattered Clouds
2:47 PM 59.0 °F 35.6 °F 42% 30.05 in 10.0 mi South 4.6 mph - N/A   Mostly Cloudy
3:07 PM 57.2 °F 42.8 °F 59% 30.06 in 10.0 mi West 4.6 mph - N/A   Mostly Cloudy
3:27 PM 55.4 °F 42.8 °F 63% 30.05 in 10.0 mi West 3.5 mph - N/A   Overcast
3:47 PM 55.4 °F 44.6 °F 67% 30.05 in 10.0 mi West 3.5 mph - N/A   Overcast
4:07 PM 55.4 °F 42.8 °F 63% 30.05 in 10.0 mi WSW 4.6 mph - N/A   Overcast
4:27 PM 55.4 °F 42.8 °F 63% 30.05 in 10.0 mi SW 5.8 mph - N/A   Overcast
4:47 PM 55.4 °F 41.0 °F 58% 30.04 in 10.0 mi SSW 4.6 mph - N/A   Overcast
5:07 PM 55.4 °F 42.8 °F 63% 30.03 in 10.0 mi South 5.8 mph - N/A Rain Light Rain
5:28 PM 55.4 °F 44.6 °F 67% 30.01 in 10.0 mi South 6.9 mph - N/A   Light Drizzle
5:48 PM 53.6 °F 46.4 °F 77% 30.02 in 10.0 mi South 6.9 mph - N/A Rain Light Rain
6:08 PM 53.6 °F 46.4 °F 77% 30.03 in 10.0 mi SSW 4.6 mph - N/A   Light Drizzle
6:28 PM 53.6 °F 46.4 °F 77% 30.04 in 10.0 mi SSW 4.6 mph - N/A   Drizzle
6:48 PM 51.8 °F 46.4 °F 82% 30.03 in 10.0 mi South 5.8 mph - N/A Rain Light Rain
7:08 PM 51.8 °F 46.4 °F 82% 30.04 in 10.0 mi Calm Calm - N/A   Drizzle
7:28 PM 51.8 °F 48.2 °F 88% 30.05 in 10.0 mi Calm Calm - N/A   Drizzle
7:48 PM 51.8 °F 48.2 °F 88% 30.06 in 10.0 mi South 3.5 mph - N/A   Drizzle
8:08 PM 51.8 °F 50.0 °F 94% 30.06 in 10.0 mi Calm Calm - N/A Rain Light Rain
8:48 PM 50.0 °F 50.0 °F 100% 30.07 in 7.0 mi South 3.5 mph - N/A Rain Light Rain
9:08 PM 50.0 °F 50.0 °F 100% 30.07 in 7.0 mi South 3.5 mph - N/A Rain Light Rain
9:28 PM 50.0 °F 50.0 °F 100% 30.07 in 5.0 mi SE 3.5 mph - N/A Rain Rain
10:08 PM 48.2 °F 48.2 °F 100% 30.07 in 7.0 mi SE 10.4 mph - N/A Rain Light Rain
10:28 PM 48.2 °F 46.4 °F 93% 30.08 in 5.0 mi SE 9.2 mph - N/A   Drizzle
10:48 PM 48.2 °F 48.2 °F 100% 30.08 in 7.0 mi SE 8.1 mph - N/A   Light Drizzle
11:08 PM 48.2 °F 48.2 °F 100% 30.07 in 5.0 mi SE 10.4 mph - N/A   Light Drizzle
11:28 PM 48.2 °F 48.2 °F 100% 30.09 in 5.0 mi SE 6.9 mph - N/A   Overcast
11:48 PM 48.2 °F 48.2 °F 100% 30.10 in 7.0 mi ESE 9.2 mph - N/A   Overcast